Hourly Data Report for May 11, 2012

All times are specified in Local Standard Time (LST). Add 1 hour to adjust for Daylight Saving Time where and when it is observed.

HAMILTON A
ONTARIO

43°10'25.000" N
79°56'06.000" W
237.70 m
6153193
71263
YHM

Download Data

Hourly Data (May 2012)
Hourly Data Report for May 11, 2012
Temp Definition
°C
Dew Point Temp Definition
°C
Rel Hum Definition
%
Wind Dir Definition
10's deg

Wind Spd Definition
km/h
Visibility Definition
km
Stn Press Definition
kPa
Hmdx Definition


Wind Chill Definition


Weather Definition


TIME
00:00 Legend Double Dagger 7.6 0.1 59 28 15 10.0 98.59     LegendNANA
01:00 Legend Double Dagger 8.1 0.4 58 28 15 10.0 98.62     Mostly Cloudy
02:00 Legend Double Dagger 8.1 0.4 58 28 15 10.0 98.67     LegendNANA
03:00 Legend Double Dagger 7.0 0.0 61 28 16 10.0 98.72     LegendNANA
04:00 Legend Double Dagger 5.8 -0.1 66 27 12 10.0 98.76     Mainly Clear
05:00 Legend Double Dagger 5.1 0.1 70 28 12 10.0 98.83     LegendNANA
06:00 Legend Double Dagger 6.3 0.8 68 27 13 10.0 98.90     LegendNANA
07:00 Legend Double Dagger 9.4 2.1 60 27 17 10.0 98.96     Mainly Clear
08:00 Legend Double Dagger 12.9 2.5 49 29 20 10.0 99.00     LegendNANA
09:00 Legend Double Dagger 15.1 2.4 42 29 20 10.0 99.03     LegendNANA
10:00 Legend Double Dagger 17.7 4.4 41 29 16 10.0 99.06     Clear
11:00 Legend Double Dagger 18.7 2.2 33 31 21 10.0 99.05     LegendNANA
12:00 Legend Double Dagger 19.4 2.9 33 30 19 10.0 99.04     LegendNANA
13:00 Legend Double Dagger 19.3 0.0 27 32 14 10.0 98.97     Mainly Clear
14:00 Legend Double Dagger 20.6 1.6 28 28 24 10.0 98.98     LegendNANA
15:00 Legend Double Dagger 21.0 2.9 30 30 12 10.0 98.98     LegendNANA
16:00 Legend Double Dagger 21.2 3.1 30 29 20 10.0 98.97     Mainly Clear
17:00 Legend Double Dagger 21.1 3.5 31 30 20 10.0 98.99     LegendNANA
18:00 Legend Double Dagger 20.1 3.9 34 27 19 10.0 99.02     LegendNANA
19:00 Legend Double Dagger 18.4 4.3 39 27 11 10.0 99.06     Mainly Clear
20:00 Legend Double Dagger 14.9 5.5 53 23 11 10.0 99.13     LegendNANA
21:00 Legend Double Dagger 13.1 4.8 57 24 9 10.0 99.19     LegendNANA
22:00 Legend Double Dagger 13.1 4.6 56 25 10 10.0 99.22     Mainly Clear
23:00 Legend Double Dagger 11.6 4.4 61 26 11 10.0 99.23     LegendNANA

Notes on Data Quality.

Legend

  • E = Estimated
  • M = Missing
  • NA = Not Available
  • ‡ = Partner data that is not subject to review by the National Climate Archives
Date modified: